Clarksville, TN

12:50 AM CST on February 24, 2018 (GMT -0600)
Outlaw

Weather History for KCKV - December, 2013

Change the Weather History Date:

Tuesday, December 31, 2013

  Actual Average Record
Temperature  
Mean Temperature 32 °F 36 °F  
Max Temperature 43 °F 46 °F 69 °F (1984)
Min Temperature 21 °F 27 °F 3 °F (1976)
Degree Days  
Heating Degree Days 33    
Month to date heating degree days 794  
Since 1 July heating degree days 1627  
Cooling Degree Days 0    
Month to date cooling degree days 5  
Year to date cooling degree days  
Moisture  
Dew Point 21 °F    
Average Humidity 68    
Maximum Humidity 92    
Minimum Humidity 43    
Precipitation  
Precipitation 0.00 in 0.12 in 1.51 in (1963)
Month to date precipitation 3.59 5.03  
Year to date precipitation 50.18  
Sea Level Pressure  
Sea Level Pressure 30.38 in    
Wind  
Wind Speed 3 mph (SSW)    
Max Wind Speed 8 mph    
Max Gust Speed 12 mph    
Visibility 10 miles    
Events      
T = Trace of Precipitation, MM = Missing Value Source: NWS Daily Summary

Daily Weather History Graph

Daily Weather History Graph

Search for Another Location

Airport or City:

Trip Planner

Search our weather history database for the weather conditions in past years. The results will help you decide how hot, cold, wet, or windy it might be!

Date:

Astronomy

Dec. 31, 2013 Rise Set
Actual Time 7:01 AM CST 4:44 PM CST
Civil Twilight 6:33 AM CST 5:12 PM CST
Nautical Twilight 6:00 AM CST 5:45 PM CST
Astronomical Twilight 5:29 AM CST 6:16 PM CST
Moon 5:55 AM CST (12/31) 4:18 PM CST (12/31)
Length of Visible Light 10h 39m
Length of Day
9h 42m
Waning Crescent, 1% of the Moon is Illuminated
Dec 31
Waning Crescent
Jan 1
New
Jan 7
First Quarter
Jan 15
Full
Jan 23
Last Quarter

Hourly Weather History & Observations

Time (CST) Temp. Windchill Dew Point Humidity Pressure Visibility Wind Dir Wind Speed Gust Speed Precip Events Conditions
12:52 AM 21.9 °F - 19.0 °F 89% 30.32 in 10.0 mi Calm Calm - N/A   Clear
1:52 AM 21.0 °F 16.2 °F 19.0 °F 92% 30.32 in 10.0 mi SSW 3.5 mph - N/A   Clear
2:52 AM 21.9 °F 17.2 °F 19.0 °F 89% 30.32 in 10.0 mi West 3.5 mph - N/A   Clear
3:52 AM 21.9 °F 17.2 °F 18.0 °F 85% 30.34 in 10.0 mi WSW 3.5 mph - N/A   Clear
4:52 AM 23.0 °F 17.0 °F 19.0 °F 85% 30.37 in 10.0 mi WSW 4.6 mph - N/A   Clear
5:52 AM 23.0 °F 17.0 °F 18.0 °F 81% 30.39 in 10.0 mi SW 4.6 mph - N/A   Clear
6:52 AM 21.9 °F 15.7 °F 18.0 °F 85% 30.42 in 10.0 mi WSW 4.6 mph - N/A   Clear
7:52 AM 23.0 °F - 19.0 °F 85% 30.45 in 10.0 mi Calm Calm - N/A   Clear
8:52 AM 27.0 °F - 21.0 °F 78% 30.46 in 10.0 mi Calm Calm - N/A   Clear
9:52 AM 30.9 °F - 23.0 °F 72% 30.46 in 10.0 mi Calm Calm - N/A   Clear
10:52 AM 35.1 °F - 21.9 °F 59% 30.45 in 10.0 mi Calm Calm - N/A   Clear
11:52 AM 37.9 °F - 21.9 °F 53% 30.43 in 10.0 mi Calm Calm - N/A   Clear
12:52 PM 41.0 °F 39.0 °F 23.0 °F 49% 30.40 in 10.0 mi Variable 3.5 mph - N/A   Clear
1:52 PM 42.1 °F 37.7 °F 25.0 °F 51% 30.38 in 10.0 mi NNE 6.9 mph - N/A   Clear
2:52 PM 42.1 °F 40.2 °F 21.9 °F 45% 30.37 in 10.0 mi ENE 3.5 mph - N/A   Clear
3:52 PM 41.0 °F 39.0 °F 24.1 °F 51% 30.38 in 10.0 mi SSE 3.5 mph - N/A   Clear
4:52 PM 37.0 °F 33.3 °F 21.0 °F 52% 30.36 in 10.0 mi SSE 4.6 mph - N/A   Clear
5:52 PM 36.0 °F 33.3 °F 21.9 °F 57% 30.36 in 10.0 mi South 3.5 mph - N/A   Clear
6:52 PM 33.1 °F 30.0 °F 21.9 °F 64% 30.36 in 10.0 mi SSE 3.5 mph - N/A   Clear
7:52 PM 34.0 °F 31.0 °F 21.9 °F 61% 30.36 in 10.0 mi South 3.5 mph - N/A   Clear
8:52 PM 32.0 °F 28.7 °F 21.9 °F 66% 30.35 in 10.0 mi South 3.5 mph - N/A   Clear
9:52 PM 30.0 °F - 21.9 °F 72% 30.35 in 10.0 mi Calm Calm - N/A   Clear
10:52 PM 28.9 °F - 21.9 °F 75% 30.35 in 10.0 mi Calm Calm - N/A   Clear
11:52 PM 28.9 °F 25.2 °F 21.9 °F 75% 30.33 in 10.0 mi SSW 3.5 mph - N/A   Clear